This is the latest recevied weather packets stored in our database for station/object KJ5IIV. If no packets are shown the sender has not sent any weather packets the latest 10 day(s).
| Time | Temp. | Humidity | Pressure | Rain* | Wind** | Luminosity | Snow |
|---|---|---|---|---|---|---|---|
| 1777770952 | 17.78° C | 61% | 1019 hPa | 0 mm | - | 0 W/m² | - |
| 1777770650 | 17.78° C | 57% | 1019 hPa | 0 mm | - | 1 W/m² | - |
| 1777770345 | 18.33° C | 57% | 1019 hPa | 0 mm | - | 2 W/m² | - |
| 1777770043 | 18.33° C | 57% | 1018.8 hPa | 0 mm | - | 4 W/m² | - |
| 1777769740 | 18.89° C | 57% | 1018.7 hPa | 0 mm | - | 7 W/m² | - |
| 1777769438 | 18.89° C | 56% | 1018.6 hPa | 0 mm | - | 11 W/m² | - |
| 1777769133 | 18.89° C | 54% | 1018.6 hPa | 0 mm | - | 14 W/m² | - |
| 1777768832 | 19.44° C | 53% | 1018.7 hPa | 0 mm | - | 18 W/m² | - |
| 1777768528 | 20° C | 50% | 1018.7 hPa | 0 mm | - | 22 W/m² | - |
| 1777768226 | 20° C | 49% | 1018.5 hPa | 0 mm | - | 25 W/m² | - |
| 1777767922 | 20.56° C | 49% | 1018.6 hPa | 0 mm | - | 28 W/m² | - |
| 1777767619 | 21.11° C | 48% | 1018.6 hPa | 0 mm | - | 31 W/m² | - |
| 1777767315 | 21.11° C | 43% | 1018.6 hPa | 0 mm | - | 34 W/m² | - |
| 1777767013 | 21.67° C | 42% | 1018.7 hPa | 0 mm | - | 37 W/m² | - |
| 1777766710 | 21.67° C | 41% | 1018.6 hPa | 0 mm | - | 39 W/m² | - |
| 1777766407 | 21.67° C | 41% | 1018.7 hPa | 0 mm | - | 41 W/m² | - |
| 1777766103 | 21.67° C | 40% | 1018.5 hPa | 0 mm | - | 43 W/m² | - |
| 1777765801 | 22.22° C | 39% | 1018.6 hPa | 0 mm | - | 45 W/m² | - |
| 1777765497 | 22.22° C | 40% | 1018.5 hPa | 0 mm | - | 47 W/m² | - |
| 1777765196 | 22.22° C | 41% | 1018.8 hPa | 0 mm | - | 49 W/m² | - |
| 1777764896 | 22.22° C | 37% | 1018.5 hPa | 0 mm | - | 50 W/m² | - |
| 1777764593 | 22.22° C | 38% | 1018.5 hPa | 0 mm | - | 76 W/m² | - |
| 1777764289 | 22.22° C | 36% | 1018.8 hPa | 0 mm | - | 53 W/m² | - |
| 1777763986 | 22.22° C | 38% | 1018.7 hPa | 0 mm | - | 55 W/m² | - |
| 1777763683 | 22.78° C | 36% | 1018.6 hPa | 0 mm | - | 51 W/m² | - |
* Rain latest hour (hover to see other rain measurements)
** Current wind speed in m/s (hover to see current wind gust speed)